AirNav   Pilot Hours Calculator
 
 1502 users online  

KNGU Norfolk Naval Station (Chambers Field)
Norfolk, Virginia, USA

GOING TO NORFOLK?


FAA INFORMATION EFFECTIVE 16 JUNE 2022

Location

FAA Identifier: NGU
Lat/Long: 36-56-14.8870N 076-17-21.4010W
36-56.248117N 076-17.356683W
36.9374686,-76.2892781
(estimated)
Elevation: 14.8 ft. / 4.5 m (surveyed)
Variation: 10W (1990)
Time zone: UTC -4 (UTC -5 during Standard Time)
Zip code: 23503

Airport Operations

Airport use: Private use. Permission required prior to landing
Activation date: 04/1943
Control tower: yes
ARTCC: WASHINGTON CENTER
FSS: LEESBURG FLIGHT SERVICE STATION
NOTAMs facility: NGU (NOTAM-D service available)
Attendance: CONTINUOUS
CLSD 0400Z FOURTH THU NOV - 1200Z FOURTH FRI NOV, CLSD 1900Z 24 DEC - 1200Z 26 DEC, CLSD 1900Z 31 DEC - 1200Z 2 JAN.
Segmented circle: no
Lights: AVBL ONLY DURING HRS OF OPERATION.
Beacon: white-white-green (lighted military airport)
Operates sunset to sunrise.

Airport Communications

ATIS: 118.425 342.0
CHAMBERS GROUND: 121.8 298.95 ;NAVY NORFOLK HELIN 370.85
CHAMBERS TOWER: 124.3 126.375 ;NAVY NORFOLK HELIN 290.5 ;NAVY NORFOLK HELIN 379.15
NORFOLK APPROACH: 118.9 ;010-310
CLEARANCE DELIVERY: 120.7 339.8
AMC/ATOC: 130.65 349.5
BASE OPS: 134.1 268.8
EMERG: 121.5 243.0
PMSV METRO: 271.6
RADAR: 119.2 134.1 263.6 302.0 309.2 346.8
WX ASOS at ORF (5 nm SE): PHONE 757-460-9348
WX AWOS-3PT at PVG (12 nm SW): 118.375 (757-465-2175)
WX ASOS at NTU (14 nm SE): PHONE DSN 433-3619 or 757-433-3619
WX ASOS at PHF (15 nm NW): PHONE 757-874-3682
WX AWOS-3 at CPK (16 nm S): 123.675 (757-204-4290)
  • NOTIFY CHAMBERS OPNS ON FREQ 268.8 ON ALL VIP FLIGHTS 15 MIN PRIOR TO ARRIVAL.
  • ALL RADAR FREQUENCIES ARE ON REQUEST.

Airport Services

Bottled oxygen: NONE
Bulk oxygen: HIGH/LOW

Runway Information

Runway 10/28

Dimensions: 8370 x 200 ft. / 2551 x 61 m
Surface: asphalt/grooved
Weight bearing capacity: 
PCN 56 /R/B/W/T
Runway edge lights: high intensity
RUNWAY 10  RUNWAY 28
Latitude: 36-56.247967N36-56.248162N
Longitude: 076-18.215905W076-16.497447W
Elevation: 13.2 ft.12.5 ft.
Traffic pattern: leftright
Runway heading: 100 magnetic, 090 true280 magnetic, 270 true
Displaced threshold: 299 ft.995 ft.
Declared distances: TORA:8370 LDA:8071TORA:8370 LDA:7375
Markings: precision, in good conditionprecision, in good condition
Visual slope indicator: 4-light PAPI on right (3.00 degrees glide path)4-light PAPI on right (3.00 degrees glide path)
Approach lights: ALSF2: standard 2,400 foot high intensity approach lighting system with centerline sequenced flashers (category II or III)
OLS RWY 10.
SSALF: simplified short approach lighting system with sequenced flashers
OLS RWY 28.
Runway end identifier lights: yesyes
Centerline lights: yesyes
Touchdown point: yes, lightedyes, lighted
Instrument approach: ILS/DME

Airport Ownership and Management from official FAA records

Ownership: U.S. Navy
Owner: U.S. NAVY
OCEANOGRAPHIC OFC-CODE 3142
WASHINGTON, DC 20373
Manager: COMMANDING OFFICER
NAVAL AIR STATION
NORFOLK, VA 23511

Additional Remarks

E60-28 HOOK E28 (B) (1062 FT).
E60-10 HOOK E28(B) (1500 FT).
AOE.
CAUTION: EXTV FISH SPOTTER ACFT ACT (SENG GENERAL AVIATION ACFT) UPWARDS FR 1500 FT OVER CHESAPEAKE BAY AND ADJ COASTAL WATERS. EXTV VFR TFC OPR W OF CHAMBERS CLASS D AND NORFOLK CLASS C AIRSPACE. BIRD HAZ.
TFC PAT: R TFC RWY 28. BASIC F/W/VFR MIN 1000 FT AND 3 NM.
NS ABTMT: NO PRACTICE APCH 0400-1200Z++ MON-SAT; 0400-1800Z++ SUN. OT BY NOTAM. NO COPTER OVFT WILLOUGHBY SPIT EXC VIA PT XRAY (CHAMBERS TACAN R-042/1.5 DME) OR PT YANKEE (CHAMBERS TACAN R-009/1.8 DME) AT 500 FT.
CSTMS/AG/IMG: CSTMS AVBL WITH 2 HR PN. AG AVBL 1300-2400Z++ MON-FRI. IMG AVBL 1300-2100Z++ MON-FRI. AG/IMG AVBL OT ON OVERTIME BASIS ONLY, PRIOR ARNG RQR.
MISC: RWY 10/28 GROOVED.
CAUTION: ARR/DEP TCAS EQUIPPED ACFT SHOULD EXPECT NUMEROUS TCAS ALERTS FROM SHIP TRANSPONDER HARBORED OR TRANSITING INTO/OUT OF THE CHESAPEAKE AND COASTAL WATERS.
ARR/DEP TCAS EQUIPED ACFT SHOULD EXPECT NUMEROUS TCAS ALERTS FROM SHIP TRANSPONDER OR TRANSMITTING INTO/OUT OF THE CHESAPEAKE AND COASTAL WATERS.
CAUTION - DO NOT MISTAKE NORFOLK INTL 5 NM SE FOR CHAMBERS FIELD, WHILE INBD ON TACAN/RNAV RWY 28 APCHS. CHAMBERS FIELD HAS A SINGLE RWY; NORFOLK INTL HAS INTERSECTING RWYS.
RSTD - PPR FOR NON CHAMBERS FIELD BASED ACFT. DSN 262-3419/3429 C757-322-3419/3429.
AMC/ATOC DSN 564-4735/3922, C757-444-4735/3922. ACFT UTILIZING AMC TRML CTC ATOC/AMC TRML 15 MIN PRIOR ARR WITH LOAD RPT. ACFT OVERSEAS CTC AMC/ATOC VIA FONE PATCH 2 HR PRIOR ARR FOR CSTM. ALL OTHER ACFT, CTC BASE OPS 15 MIN PRIR ARR.
MISC- FLT PLANS FOR NS NORFOLK, CHAMBERS FLD, AND NAS OCEANA SHOULD BE FAXED TO DSN 565-9680, C757-445-9680, OR EMAILED TO KNGU.FLTPLNG.FCT@NAVY.MIL. TO CFM RECEIPT OF FLT PLANS CALL NS NORFOLK, CHAMBERS FLD FLT PLANNING SUPERVISOR AT DSN 262-3419/3429, C757-322-3419/3429.
CAUTION - RWY 28 MULTIPLE CRANES 1.2 NM TO 1.3 NM FM DER 1600 FT L TO 4000 FT R OF CNTRLN, 260 FT MSL.
FOR CIVIL ACFT LNDG PERMIT (CALP) INFO CTC AFLD MGR C757-322-3419/3429.
A-GEAR: AVOID CNTRLN LGT RWY 10/28 DUR CABLE ENGAGEMENT TO PREVENT TAILHOOK SKIP. DIST RWY 28 MEASURED FR DISPL THR. E-28(B) IN RAISED POSN AT DEP END OF RWY NMLLY. SHORTFLD GEAR AVBL WITH 20 MIN PN.
JASU:(NC-10C) (NC-8A/A1) (NCPP-105 CTC AIR OPS DUTY OFFICER TO ENSURE AVBL.)
FUEL: NO TRAN COPTER HOT PIT WO PRIOR COORD WITH HOST SQUADRON. J5.
FLUID: ADI SP PRESAIR LHOX LOX.
OIL: UNAVBL.
TRAN ALERT: LTD TRAN MAINT AVBL WKEND ONLY 1200-2000Z++. TRAN MAINT UNAVBL OT. 2 HR PN RQR FOR LOX. LAVATORY SVC UNAVBL FOR C-130 ACFT. POTABLE WATER UNAVBL. NO TRAN WORK/MSN PLANNING/BRIEFING SPACES OR COMSEC STOR FOR DETS.
RSTD: TWY B CLSD S OF TWY F AND TWY D CLSD E OF TWY S UFN.

Instrument Procedures

NOTE: All procedures below are presented as PDF files. If you need a reader for these files, you should download the free Adobe Reader.

NOT FOR NAVIGATION. Please procure official charts for flight.
FAA instrument procedures published for use from 16 June 2022 at 0901Z to 14 July 2022 at 0900z.

 
STARs - Standard Terminal Arrivals
DRONE TWO   2 pages: [1] [2] (289KB)
TERKS TWO   download (182KB)
 
IAPs - Instrument Approach Procedures
ILS OR LOC/DME RWY 10   download (256KB)
RNAV (GPS) RWY 10   download (154KB)
RNAV (GPS) RWY 28   download (154KB)
HI-TACAN RWY 10   download (145KB)
HI-TACAN RWY 28   download (149KB)
TACAN RWY 10   download (194KB)
TACAN RWY 28   download (145KB)
Radar Approach Procedures available   download (181KB)
 
CHAMBERS ONE (OBSTACLE)   2 pages: [1] [2] (241KB)
NOTE: Special Take-Off Minimums/Departure Procedures apply   download (379KB)

Other nearby airports with instrument procedures:

KNHU - Norfolk Naval Station Airport (1 nm NW)
KORF - Norfolk International Airport (5 nm SE)
KLFI - Langley Air Force Base (9 nm N)
KPVG - Hampton Roads Executive Airport (12 nm SW)
KNTU - Oceana Naval Air Station (Apollo Soucek Field) (14 nm SE)
KPHF - Newport News/Williamsburg International Airport (15 nm NW)
KCPK - Chesapeake Regional Airport (16 nm S)
KFAF - Felker Army Airfield (19 nm NW)
 
Loc | Ops | Rwys | IFR | FBO | Links
Com | Nav | Svcs | Stats | Notes
Area around KNGU (Norfolk Naval Station (Chambers Field))
 
Road maps at: MapQuest Bing Google
 
Aerial photo
WARNING: Photo may not be current or correct
Aerial photo of KNGU (Norfolk Naval Station (Chambers Field))
Photo by David Newcomer
Photo taken 10-Sep-2019
looking southeast from 5,000'.

Do you have a better or more recent aerial photo of Norfolk Naval Station (Chambers Field) that you would like to share? If so, please send us your photo.

 
Sectional chart

 
Airport diagram
Diagram of KNGU (Norfolk Naval Station (Chambers Field))
Download PDF
of official airport diagram from the FAA

 
Airport distance calculator
Flying to Norfolk Naval Station (Chambers Field)? Find the distance to fly.

From to KNGU

Sunrise and sunset
Times for 29-Jun-2022
 Local
(UTC-4)
 Zulu
(UTC)
Morning civil twilight05:1909:19
Sunrise05:4909:49
Sunset20:2800:28
Evening civil twilight20:5800:58

Current date and time
Zulu (UTC)  29-Jun-2022 21:41:23
Local (UTC-4)  29-Jun-2022 17:41:23
 
METAR
KNGU 
2nm SE 
292059Z 10008KT 10SM BKN280 28/15 A3023 RMK AO2 SLP238 T02780150 56014 $
KORF 
5nm SE 
292051Z 05006KT 10SM CLR 27/16 A3022 RMK AO2 SLP233 T02720156 56013
KLFI 
9nm NW 
292056Z AUTO 12009KT 9SM CLR 28/16 A3022 RMK AO2 SLP240 T02760159 57014 $
KNTU 
15nm SE 
292056Z 15011KT 10SM SCT040 BKN300 26/15 A3023 RMK AO2 SLP238 T02610150 56012
KPHF 
15nm NW 
292054Z AUTO 20009KT 10SM CLR 28/18 A3022 RMK AO2 SLP232 T02830178 56017
KCPK 
16nm S 
292115Z AUTO 13006KT 10SM SCT049 27/16 A3022 RMK AO2 T02730160
KNFE 
16nm SE 
292056Z AUTO 11007KT 10SM CLR 27/16 A3023 RMK AO2 SLP240 T02720161 56012
KFAF 
19nm NW 
292056Z AUTO 17008KT 10SM CLR 28/18 A3020 RMK AO2 SLP230 T02820177 57016 $
TAF
KNGU 
2nm SE 
2915/3015 VRB06KT 9999 SCT200 QNH3020INS BECMG 2918/2920 15008G15KT 9999 FEW200 QNH3017INS FM300100 18008KT 9999 SKC QNH3019INS FM300700 VRB05KT 9999 SKC QNH3021INS T29/2920Z T20/3010Z FN20002
KORF 
5nm SE 
291720Z 2918/3018 13005KT P6SM SCT040 BKN200 FM300000 19006KT P6SM SCT250
KLFI 
9nm NW 
291700Z 2917/3023 15006KT 9999 SKC QNH3016INS BECMG 3011/3012 22009KT 9999 FEW010 QNH3024INS TX29/2921Z TN20/3010Z
KNTU 
15nm SE 
2915/3015 VRB06KT 9999 FEW060 BKN250 QNH3020INS FM291900 16010G15KT 9999 SCT250 QNH3017INS FM300700 VRB06KT 9999 SCT020 QNH3019INS TEMPO 3007/3013 3200 BR SCT010 T29/2919Z T20/3009Z FN20008
KPHF 
15nm NW 
291720Z 2918/3018 18005KT P6SM SCT040 BKN250 FM292300 18006KT P6SM SCT250
KFAF 
19nm NW 
291800Z 2918/3024 18009KT 9999 SCT200 QNH3018INS BECMG 3012/3013 VRB06KT 8000 BR SCT006 BKN020 QNH3023INS BECMG 3015/3016 VRB06KT 9999 NSW FEW060 QNH3013INS TX29/2920Z TN18/3010Z
NOTAMs
Click for the latest NOTAMs
NOTAMs are issued by the DoD/FAA and will open in a separate window not controlled by AirNav.

 

 
 

Would you like to see your business listed on this page?

 If your business provides an interesting product or service to pilots, flight crews, aircraft, or users of the Norfolk Naval Station (Chambers Field), you should consider listing it here.  To start the listing process, click on the button below
 
Add a business
 

Other Pages about Norfolk Naval Station (Chambers Field)

Update a link
 
Copyright © AirNav, LLC. All rights reserved. Privacy Policy  Contact